Home > Weather > Metlakatla > Past weeks

Flag for USA Weather for the Past 2 Weeks in Metlakatla, Alaska, USA

Now
55 °F

Partly sunny.


Feels Like: 53 °F
Forecast: 42 / 53 °F
Wind: 9 mph from Southwest

Location: Metlakatla - Metlakatla Seaplane Base

Current Time: May 3, 2016 at 4:30:12 PM

Latest Report: May 3, 2016 at 3:56 PM


Visibility: 10 mi

Pressure: 30.09 "Hg

Humidity: 55%

Dew Point: 39 °F

Location of MetlakatlaLocation

Historic Weather in Metlakatla — Graph

°F

Metlakatla Temperature Yesterday

Maximum temperature yesterday: 61 °F (at 12:56 AM)
Minimum temperature yesterday: 48 °F (at 8:56 PM)
Average temperature yesterday: 53 °F

High & Low Weather Summary for the Past Weeks

 TemperatureHumidityPressure
High64 °F (Apr 20, 3:56 PM)100% (Apr 20, 6:36 AM)30.32 "Hg (Apr 20, 6:36 AM)
Low39 °F (Apr 19, 2:56 AM)34% (Apr 20, 3:36 PM)29.67 "Hg (Apr 22, 12:16 PM)
Average49 °F77%30.01 "Hg
* Reported Apr 18 2:36 PM — May 3 2:56 PM, Metlakatla, Weather by CustomWeather, © 2016

Note: Actual official high and low records may vary slightly from our data, if they occured in-between our weather recording intervals... More about our weather records

Advertising

Metlakatla Weather History for the Previous 24 Hours

Scroll right to see more
 ConditionsComfort  
Time TempWeatherWind HumidityBarometerVisibility
2:56 PM
Tue, May 3
55 °FBroken clouds.9 mph59%30.10 "Hg10 mi
2:36 PM55 °FPartly sunny.8 mph59%30.10 "Hg10 mi
1:56 PM54 °FPartly sunny.10 mph58%30.09 "Hg10 mi
1:36 PM54 °FPassing clouds.6 mph63%30.09 "Hg10 mi
1:16 PM55 °FSunny.5 mph72%30.09 "Hg10 mi
12:56 PM55 °FPassing clouds.3 mph72%30.09 "Hg10 mi
12:36 PM54 °FPartly sunny.No wind82%30.09 "Hg10 mi
12:16 PM52 °FMore clouds than sun.5 mph77%30.09 "Hg10 mi
11:56 AM52 °FMore clouds than sun.3 mph77%30.08 "Hg10 mi
11:36 AM50 °FCloudy.5 mph76%30.08 "Hg10 mi
11:16 AM48 °FMostly cloudy.3 mph82%30.08 "Hg10 mi
10:56 AM48 °FMostly cloudy.3 mph76%30.07 "Hg10 mi
10:36 AM48 °FMostly cloudy.3 mph82%30.06 "Hg10 mi
10:16 AM48 °FMostly cloudy.3 mph82%30.05 "Hg10 mi
9:56 AM48 °FBroken clouds.5 mph82%30.05 "Hg10 mi
9:36 AM48 °FMostly cloudy.3 mph87%30.05 "Hg10 mi
9:16 AM48 °FCloudy.3 mph94%30.04 "Hg10 mi
8:56 AM48 °FMore clouds than sun.No wind87%30.04 "Hg10 mi
8:36 AM48 °FMostly cloudy.No wind94%30.03 "Hg10 mi
8:16 AM46 °FOvercast.No wind93%30.03 "Hg10 mi
7:36 AM46 °FOvercast.6 mph93%30.02 "Hg10 mi
7:16 AM46 °FMore clouds than sun.10 mph87%30.01 "Hg10 mi
6:56 AM46 °FCloudy.12 mph87%30.01 "Hg10 mi
6:36 AM46 °FMostly cloudy.12 mph87%30.00 "Hg10 mi
6:16 AM46 °FBroken clouds.7 mph93%30.00 "Hg10 mi
5:56 AM46 °FOvercast.6 mph93%30.00 "Hg10 mi
5:36 AM46 °FMostly cloudy.12 mph87%29.99 "Hg10 mi
5:16 AM46 °FMostly cloudy.12 mph87%29.99 "Hg10 mi
4:56 AM46 °FOvercast.12 mph87%29.99 "Hg10 mi
4:36 AM46 °FOvercast.13 mph87%29.98 "Hg10 mi
3:36 AM46 °FMostly cloudy.12 mph93%29.97 "Hg10 mi
3:16 AM48 °FOvercast.15 mph82%29.96 "Hg10 mi
2:56 AM48 °FMostly cloudy.9 mph87%29.96 "Hg10 mi
2:36 AM48 °FMostly cloudy.13 mph87%29.96 "Hg10 mi
2:16 AM48 °FPartly cloudy.13 mph87%29.96 "Hg10 mi
1:56 AM48 °FMostly cloudy.13 mph87%29.96 "Hg10 mi
1:36 AM48 °FOvercast.13 mph87%29.95 "Hg10 mi
1:16 AM48 °FMostly cloudy.12 mph87%29.95 "Hg10 mi
12:56 AM48 °FMostly cloudy.15 mph87%29.95 "Hg10 mi
12:36 AM48 °FOvercast.15 mph87%29.95 "Hg10 mi
12:16 AM48 °FMostly cloudy.15 mph87%29.95 "Hg10 mi
11:56 PM
Mon, May 2
48 °FOvercast.15 mph87%29.94 "Hg10 mi
11:36 PM48 °FMostly cloudy.13 mph87%29.95 "Hg10 mi
11:16 PM50 °FMostly cloudy.13 mph82%29.95 "Hg10 mi
10:56 PM48 °FOvercast.17 mph87%29.95 "Hg10 mi
10:36 PM50 °FMostly cloudy.15 mph82%29.95 "Hg10 mi
10:16 PM50 °FOvercast.14 mph82%29.96 "Hg10 mi
9:36 PM48 °FMostly cloudy.No wind94%29.96 "Hg10 mi
8:56 PM48 °FMostly cloudy.3 mph87%29.96 "Hg10 mi
8:36 PM50 °FMostly cloudy.No wind88%29.97 "Hg10 mi
7:56 PM50 °FMore clouds than sun.3 mph88%29.98 "Hg10 mi
7:16 PM52 °FOvercast.No wind82%29.98 "Hg10 mi
6:56 PM52 °FMostly cloudy.5 mph77%29.99 "Hg10 mi
6:36 PM50 °FMore clouds than sun.No wind88%29.99 "Hg10 mi
6:16 PM52 °FMore clouds than sun.No wind82%29.99 "Hg10 mi
5:36 PM52 °FLow clouds.No wind82%30.00 "Hg10 mi
5:16 PM52 °FLow clouds.No wind88%30.00 "Hg10 mi
4:56 PM52 °FMostly cloudy.7 mph82%30.01 "Hg10 mi
4:36 PM52 °FMostly cloudy.5 mph77%30.02 "Hg10 mi
4:16 PM52 °FLow clouds.9 mph77%30.01 "Hg10 mi
Weather by CustomWeather, © 2016

See weather overviewHow to use our weather pages